Temp
-9 -9 -8 -8 -8 -8 -8 -8 -8 -8 -8 -8 -8 -9 -8 -8 -8 -8 -8 -8 -8 -8 -8 -8 -8 -8 -8 -8 -7 -8 -8 -8 -9 -8 -8 -8 -8 -7 -8 -8 -8 -8 -9
-9 -9 -9 -8 -8 -8 -8 -8 -8 -8 -8 -7 -8 -8 -9 -9 -9 -8 -8 -8 -8 -8 -8 -8 -8 -8 -8 -8 -8 -8 -8 -8 -8 -8 -8 -8 -8 -9 -9 -8 -8 -9 -9
-9 -9 -9 -8 -8 -8 -8 -8 -8 -8 -8 -8 -8 -8 -8 -9 -9 -8 -8 -8 -8 -8 -8 -8 -8 -8 -8 -8 -8 -8 -8 -8 -8 -8 -8 -8 -9 -9 -9 -9 -9 -9 -9
-9 -9 -9 -9 -8 -8 -8 -9 -8 -8 -8 -8 -8 -8 -8 -8 -8 -8 -8 -8 -8 -8 -8 -8 -8 -8 -8 -8 -8 -8 -8 -8 -8 -8 -9 -9 -9 -9 -9 -9 -9 -9 -9
-9 -9 -8 -8 -8 -8 -8 -8 -8 -8 -8 -8 -8 -8 -8 -7 -8 -8 -8 -8 -8 -8 -8 -8 -8 -8 -8 -8 -8 -8 -8 -8 -9 -8 -9 -9 -9 -9 -9 -9 -9 -10 -9
-9 -9 -8 -8 -8 -7 -8 -8 -8 -8 -8 -8 -8 -8 -8 -8 -8 -8 -8 -8 -8 -8 -8 -8 -9 -9 -9 -9 -9 -9 -9 -9 -9 -9 -9 -9 -9 -10 -10 -10 -10 -10 -10
-9 -8 -8 -8 -8 -7 -7 -7 -8 -8 -8 -9 -9 -9 -9 -9 -8 -8 -8 -8 -8 -8 -8 -8 -8 -9 -9 -9 -9 -9 -9 -9 -10 -10 -10 -10 -10 -10 -10 -10 -10 -11 -11
-8 -8 -8 -7 -7 -8 -7 -7 -8 -7 -7 -8 -8 -9 -9 -9 -9 -9 -9 -9 -9 -9 -9 -9 -9 -9 -9 -9 -9 -9 -9 -10 -10 -10 -10 -10 -10 -11 -11 -11 -11 -11 -11
-8 -7 -7 -7 -7 -7 -7 -7 -7 -7 -8 -8 -8 -8 -8 -8 -8 -9 -9 -9 -9 -9 -9 -9 -9 -9 -10 -10 -10 -10 -10 -10 -10 -10 -11 -11 -11 -11 -12 -12 -12 -12 -12
-8 -7 -7 -7 -7 -7 -7 -7 -7 -7 -7 -8 -9 -9 -8 -9 -8 -8 -8 -8 -9 -9 -9 -10 -10 -11 -10 -10 -10 -10 -11 -11 -11 -11 -11 -12 -11 -12 -12 -13 -13 -13 -13
-8 -8 -8 -7 -7 -7 -7 -8 -8 -7 -7 -8 -8 -8 -8 -9 -9 -9 -9 -9 -9 -10 -10 -10 -10 -10 -10 -10 -11 -12 -11 -12 -12 -12 -12 -12 -12 -13 -12 -12 -13 -13 -13
-8 -8 -8 -8 -8 -8 -8 -8 -8 -8 -8 -8 -8 -8 -8 -9 -9 -10 -10 -10 -10 -10 -10 -10 -10 -11 -11 -11 -12 -12 -12 -12 -13 -13 -13 -13 -13 -13 -13 -13 -13 -13 -13
-9 -9 -8 -8 -8 -8 -8 -8 -9 -9 -8 -8 -9 -9 -9 -10 -10 -10 -11 -11 -10 -10 -10 -11 -11 -12 -12 -12 -12 -12 -12 -13 -12 -12 -12 -12 -13 -13 -13 -13 -13 -13 -13
-9 -9 -9 -9 -9 -10 -9 -9 -9 -9 -10 -10 -10 -10 -10 -10 -11 -11 -12 -12 -12 -12 -12 -12 -12 -12 -13 -13 -13 -13 -13 -13 -13 -13 -13 -13 -13 -13 -13 -13 -13 -13 -13
-9 -9 -9 -9 -10 -10 -10 -10 -10 -10 -11 -11 -11 -11 -11 -12 -12 -12 -13 -13 -13 -13 -13 -13 -13 -13 -13 -13 -13 -13 -13 -13 -13 -13 -13 -13 -13 -13 -13 -14 -14 -14 -14
-10 -10 -10 -10 -10 -10 -10 -11 -11 -11 -11 -11 -12 -12 -12 -12 -13 -13 -13 -13 -13 -13 -13 -13 -13 -13 -13 -13 -13 -13 -13 -13 -14 -14 -14 -14 -14 -14 -14 -15 -15 -15 -15
-10 -11 -10 -10 -10 -11 -11 -11 -12 -12 -12 -12 -12 -13 -13 -13 -13 -13 -13 -13 -13 -13 -13 -13 -13 -13 -13 -13 -14 -14 -14 -14 -14 -15 -15 -15 -16 -17 -17 -17 -18 -18 -18
-11 -11 -11 -11 -11 -12 -12 -12 -13 -13 -13 -13 -13 -13 -13 -13 -13 -13 -13 -13 -13 -13 -14 -14 -14 -14 -14 -14 -14 -14 -15 -15 -16 -16 -17 -18 -19 -19 -19 -19 -20 -20 -21
-12 -12 -12 -12 -12 -12 -13 -13 -14 -13 -13 -13 -13 -14 -13 -13 -13 -14 -14 -14 -14 -14 -14 -14 -14 -14 -14 -14 -15 -16 -17 -18 -18 -18 -19 -19 -19 -20 -20 -21 -22 -22 -23
-12 -12 -12 -13 -13 -13 -14 -14 -14 -14 -13 -14 -14 -14 -14 -14 -14 -14 -14 -14 -14 -14 -14 -15 -15 -15 -15 -16 -17 -18 -19 -19 -19 -19 -19 -19 -20 -22 -22 -22 -23 -23 -23
-13 -14 -14 -14 -14 -14 -15 -15 -15 -15 -14 -14 -14 -14 -14 -14 -14 -14 -14 -14 -15 -15 -15 -15 -16 -17 -18 -19 -19 -19 -20 -20 -20 -19 -20 -21 -22 -22 -22 -22 -23 -23 -24
-14 -14 -14 -14 -14 -14 -15 -15 -15 -15 -15 -15 -14 -14 -14 -15 -15 -15 -15 -15 -15 -15 -15 -16 -17 -19 -19 -20 -20 -20 -20 -20 -20 -20 -21 -21 -21 -21 -22 -22 -23 -23 -24
-14 -14 -14 -14 -14 -15 -16 -16 -16 -15 -15 -15 -15 -15 -15 -15 -15 -15 -15 -16 -16 -17 -18 -19 -19 -20 -20 -20 -21 -21 -21 -21 -21 -21 -22 -21 -21 -21 -22 -22 -22 -23 -23
-14 -14 -14 -15 -16 -16 -16 -16 -15 -15 -15 -15 -15 -15 -15 -15 -15 -16 -16 -17 -18 -19 -19 -20 -20 -20 -20 -21 -21 -21 -21 -21 -21 -22 -23 -22 -22 -22 -22 -22 -22 -22 -23
-15 -15 -16 -16 -17 -17 -17 -16 -16 -15 -15 -15 -15 -16 -16 -16 -16 -16 -16 -18 -19 -20 -20 -20 -20 -21 -21 -21 -22 -22 -22 -22 -22 -23 -23 -24 -24 -24 -24 -24 -24 -24 -24
-16 -17 -17 -16 -17 -17 -17 -16 -16 -15 -15 -16 -16 -16 -16 -16 -17 -17 -18 -19 -20 -20 -21 -21 -21 -21 -21 -22 -22 -22 -22 -23 -23 -23 -23 -24 -24 -24 -24 -24 -24 -24 -25
Height
5844 5841 5838 5835 5829 5824 5821 5818 5815 5813 5811 5810 5808 5809 5811 5812 5814 5817 5819 5821 5823 5825 5828 5829 5831 5833 5835 5838 5839 5842 5843 5844 5844 5845 5845 5845 5844 5845 5845 5845 5844 5843 5843
5843 5840 5836 5833 5829 5825 5822 5819 5816 5813 5812 5811 5810 5810 5810 5811 5813 5815 5817 5818 5820 5821 5823 5825 5827 5829 5831 5832 5834 5836 5837 5837 5837 5838 5838 5837 5837 5837 5837 5836 5835 5835 5835
5840 5837 5834 5831 5828 5825 5822 5820 5817 5814 5813 5811 5811 5811 5811 5813 5814 5814 5816 5816 5817 5817 5818 5820 5822 5824 5826 5826 5827 5828 5829 5830 5830 5831 5830 5829 5829 5828 5829 5828 5828 5827 5827
5838 5835 5832 5829 5827 5824 5822 5819 5817 5815 5814 5813 5812 5812 5812 5812 5813 5813 5814 5814 5815 5814 5815 5816 5818 5819 5819 5820 5821 5821 5822 5821 5822 5822 5821 5819 5819 5819 5820 5819 5820 5819 5819
5836 5832 5829 5827 5825 5823 5821 5819 5817 5815 5814 5814 5813 5812 5812 5812 5812 5812 5811 5811 5811 5812 5812 5812 5812 5813 5813 5813 5813 5814 5814 5813 5814 5813 5812 5812 5812 5812 5812 5811 5811 5810 5809
5834 5830 5827 5825 5824 5821 5819 5817 5816 5816 5814 5813 5813 5812 5812 5811 5810 5809 5809 5808 5808 5808 5808 5807 5807 5807 5807 5807 5806 5806 5806 5806 5805 5805 5804 5804 5804 5804 5803 5802 5801 5800 5800
5830 5827 5825 5823 5822 5820 5818 5817 5816 5815 5814 5813 5813 5811 5810 5808 5806 5806 5806 5805 5804 5803 5802 5802 5802 5802 5801 5801 5801 5799 5798 5798 5797 5797 5796 5795 5795 5795 5793 5794 5792 5790 5788
5825 5823 5823 5819 5818 5818 5817 5816 5815 5814 5812 5810 5809 5807 5805 5803 5802 5801 5801 5801 5800 5799 5798 5797 5796 5796 5795 5794 5793 5792 5791 5790 5788 5787 5787 5786 5786 5787 5786 5787 5785 5782 5780
5820 5818 5819 5816 5815 5814 5813 5812 5812 5811 5809 5806 5805 5803 5801 5799 5798 5797 5796 5795 5794 5793 5792 5791 5790 5789 5788 5787 5785 5783 5783 5781 5780 5779 5778 5778 5777 5776 5775 5774 5773 5772 5770
5817 5816 5815 5815 5813 5811 5810 5808 5807 5806 5805 5802 5800 5798 5796 5795 5794 5792 5791 5789 5788 5786 5785 5784 5782 5780 5778 5777 5777 5775 5773 5772 5771 5771 5770 5768 5766 5765 5764 5762 5760 5758 5757
5812 5813 5812 5811 5810 5808 5806 5804 5802 5800 5798 5796 5795 5793 5791 5789 5787 5785 5785 5784 5783 5780 5779 5777 5775 5772 5769 5766 5765 5763 5762 5761 5760 5760 5759 5757 5755 5752 5750 5748 5747 5744 5742
5807 5806 5806 5806 5804 5802 5800 5798 5796 5794 5792 5789 5788 5786 5784 5782 5781 5779 5777 5777 5776 5775 5773 5770 5769 5766 5762 5761 5758 5756 5755 5753 5751 5750 5749 5747 5744 5741 5739 5737 5734 5731 5729
5800 5800 5799 5799 5797 5794 5793 5792 5790 5789 5786 5783 5780 5778 5775 5774 5773 5771 5769 5768 5767 5765 5763 5761 5759 5757 5756 5753 5752 5750 5747 5745 5743 5741 5738 5736 5734 5730 5728 5725 5721 5717 5715
5794 5794 5793 5792 5791 5790 5786 5786 5785 5783 5780 5777 5774 5771 5768 5766 5765 5764 5763 5761 5760 5758 5756 5754 5751 5749 5747 5745 5743 5740 5738 5736 5733 5730 5727 5723 5719 5715 5712 5709 5705 5701 5697
5786 5787 5786 5786 5784 5782 5780 5779 5777 5775 5773 5770 5767 5763 5761 5760 5758 5757 5756 5755 5753 5752 5750 5748 5745 5743 5740 5737 5735 5731 5728 5725 5721 5717 5713 5709 5704 5700 5696 5691 5686 5680 5677
5779 5779 5778 5777 5775 5774 5773 5771 5769 5768 5765 5762 5760 5758 5756 5753 5752 5751 5750 5748 5746 5745 5743 5741 5738 5735 5732 5728 5725 5721 5717 5712 5707 5702 5697 5691 5686 5680 5675 5671 5664 5658 5653
5772 5771 5770 5769 5767 5766 5765 5763 5762 5759 5756 5754 5753 5751 5750 5748 5747 5746 5744 5742 5740 5738 5735 5732 5729 5725 5722 5718 5714 5709 5703 5698 5692 5685 5678 5671 5665 5659 5653 5647 5642 5636 5631
5764 5764 5763 5761 5760 5758 5756 5754 5752 5751 5749 5748 5747 5745 5744 5743 5742 5740 5738 5735 5733 5730 5727 5723 5719 5715 5711 5706 5700 5693 5685 5678 5672 5665 5659 5653 5646 5640 5634 5628 5623 5617 5611
5759 5757 5755 5752 5751 5749 5748 5747 5745 5745 5743 5742 5741 5739 5738 5736 5735 5733 5730 5727 5724 5721 5717 5712 5707 5702 5695 5689 5683 5675 5667 5660 5654 5648 5643 5635 5629 5622 5617 5611 5606 5602 5596
5750 5749 5747 5745 5744 5742 5741 5740 5739 5738 5737 5736 5734 5733 5731 5730 5728 5725 5722 5719 5716 5711 5706 5700 5694 5687 5680 5674 5667 5660 5653 5647 5641 5635 5628 5622 5616 5610 5606 5600 5595 5590 5585
5742 5739 5738 5737 5736 5735 5735 5734 5731 5730 5729 5728 5727 5725 5723 5721 5719 5715 5712 5708 5703 5699 5695 5689 5681 5673 5666 5661 5656 5650 5643 5637 5631 5624 5617 5612 5608 5603 5599 5593 5587 5582 5576
5733 5732 5730 5730 5728 5729 5728 5727 5726 5725 5724 5722 5720 5718 5716 5713 5710 5706 5702 5697 5692 5686 5680 5675 5669 5664 5658 5652 5645 5641 5635 5628 5622 5615 5609 5605 5601 5597 5591 5587 5582 5578 5574
5725 5724 5723 5721 5719 5717 5717 5716 5716 5716 5716 5714 5713 5711 5708 5705 5700 5696 5690 5684 5678 5672 5667 5662 5659 5654 5650 5645 5640 5634 5628 5622 5615 5608 5603 5600 5596 5591 5587 5583 5580 5577 5574
5717 5715 5714 5712 5709 5708 5709 5710 5710 5708 5707 5705 5703 5700 5696 5692 5688 5683 5679 5673 5666 5662 5657 5654 5650 5647 5642 5637 5633 5628 5622 5617 5610 5605 5600 5596 5592 5588 5584 5581 5578 5575 5572
5709 5707 5704 5703 5704 5703 5703 5703 5701 5700 5699 5696 5693 5689 5685 5681 5677 5672 5667 5663 5657 5653 5649 5646 5643 5639 5635 5630 5626 5622 5618 5614 5608 5603 5598 5594 5590 5586 5583 5580 5578 5577 5576
5701 5699 5699 5699 5699 5699 5699 5698 5695 5693 5690 5687 5684 5680 5675 5670 5665 5660 5656 5653 5649 5645 5642 5638 5635 5632 5628 5624 5620 5617 5613 5610 5606 5601 5597 5594 5591 5588 5585 5583 5581 5579 5577
Wind_Speed
15 16 18 21 22 17 17 14 8 7 7 8 9 6 8 10 12 14 16 17 20 21 20 21 22 21 22 24 22 22 23 23 22 26 26 29 27 23 23 30 26 25 28
18 16 16 19 22 15 12 11 11 11 4 5 3 3 3 8 11 10 12 14 16 19 21 22 24 26 25 29 30 28 25 24 26 28 30 27 23 22 25 27 29 28 30
17 15 15 19 20 15 10 8 8 8 10 1 2 6 4 5 9 10 12 13 15 19 22 21 28 30 31 31 31 31 29 30 30 28 30 35 32 32 34 36 34 31 32
14 17 18 20 18 15 9 5 6 6 6 6 4 3 4 5 7 8 10 11 12 10 13 15 15 16 18 23 26 30 31 32 36 38 34 31 30 31 31 31 33 35 36
14 16 20 20 19 14 11 7 5 6 6 3 2 2 1 1 5 11 16 18 16 17 15 18 21 22 25 24 28 31 36 39 38 39 38 34 31 29 28 31 34 36 39
15 17 19 18 17 14 14 12 6 7 7 6 6 6 5 5 6 7 6 7 10 13 17 20 25 24 25 25 28 30 31 32 32 32 32 29 32 33 30 31 39 34 39
18 15 16 16 12 10 11 12 10 8 10 9 9 11 13 15 15 12 12 14 16 15 15 16 16 19 20 22 22 25 26 26 28 29 33 32 30 33 33 29 37 38 37
15 13 12 15 14 11 10 11 12 14 16 18 19 18 19 16 15 15 12 13 14 17 16 17 18 21 23 25 25 26 27 28 28 29 30 31 31 28 29 31 38 37 37
14 15 12 14 11 10 13 14 15 15 17 18 19 20 19 17 18 17 16 15 17 17 17 17 19 21 23 25 26 28 29 30 29 28 28 27 28 30 34 36 38 41 43
14 14 13 11 8 10 10 11 13 15 16 18 21 19 18 17 19 21 21 21 22 21 22 22 22 24 26 27 29 29 29 30 30 30 32 33 35 37 38 39 41 46 47
17 16 14 11 11 12 13 14 17 19 19 19 20 22 21 22 25 24 23 21 24 20 19 21 24 26 27 29 30 31 30 31 31 31 31 32 33 38 42 41 42 44 43
19 18 17 17 16 18 18 18 20 21 22 22 23 24 26 27 29 26 27 26 22 23 24 24 24 25 28 28 28 29 30 28 25 25 26 30 33 34 38 39 41 41 43
22 19 20 21 23 23 21 23 19 26 25 25 27 28 25 26 26 27 28 28 29 28 28 28 25 24 23 24 24 27 28 30 31 32 33 36 37 38 41 44 47 50 51
23 23 21 21 20 20 18 21 26 25 26 27 28 27 24 23 21 20 21 22 23 24 24 25 25 24 24 26 27 29 31 33 35 37 39 42 44 47 50 52 54 56 58
22 24 23 21 20 20 22 22 25 26 27 27 25 24 24 21 18 18 18 18 18 19 20 22 25 28 30 32 35 37 39 41 44 46 49 51 53 55 57 59 61 63 64
22 24 22 22 21 23 23 24 24 26 25 24 23 22 20 18 18 16 17 19 21 24 26 28 30 31 33 36 38 41 44 47 49 52 54 57 60 62 63 64 67 69 70
21 22 21 19 21 22 24 25 26 26 25 23 20 18 15 15 15 17 20 23 25 27 29 32 34 36 38 41 44 46 49 52 55 57 59 59 58 58 58 58 58 59 60
25 25 22 21 21 22 24 25 24 23 20 17 15 14 15 18 20 21 23 25 29 31 33 35 38 41 43 46 48 51 53 54 54 54 52 49 49 49 49 49 48 48 49
27 24 23 21 22 22 22 22 19 17 16 15 17 19 20 21 22 24 28 29 32 34 37 40 43 46 48 51 52 52 50 48 47 47 46 47 48 45 42 41 41 41 40
27 26 26 24 22 20 19 18 17 20 20 19 20 21 22 25 27 27 30 33 36 38 41 43 46 49 51 52 49 44 42 43 45 44 45 44 37 33 35 34 34 36 36
29 23 24 24 22 21 20 20 22 23 23 23 23 26 27 26 29 32 35 38 40 42 45 46 47 45 41 39 38 38 38 39 39 39 36 28 26 27 28 32 30 29 24
24 23 25 26 27 28 26 23 22 23 25 26 23 25 27 30 33 35 38 40 43 46 48 48 43 38 34 35 36 35 35 36 36 35 30 24 25 28 26 25 21 19 17
24 25 31 35 32 32 32 26 23 22 22 23 25 28 30 33 35 37 40 42 43 45 42 38 33 31 33 33 32 32 31 31 30 30 22 21 23 22 19 16 15 13 13
26 29 33 34 27 24 19 17 18 22 25 27 29 32 34 36 38 41 42 40 38 36 33 31 29 30 31 30 29 29 28 28 28 25 21 19 20 18 14 12 13 14 12
27 27 28 25 17 18 19 21 26 28 28 30 32 35 37 39 40 42 41 36 32 31 29 28 28 29 29 28 27 26 25 25 25 23 20 17 17 18 15 12 11 10 9
17 18 20 19 16 17 25 28 29 31 33 34 36 37 39 40 40 37 34 30 27 27 27 27 27 27 26 26 25 25 23 22 22 21 18 15 14 12 10 9 8 8 8
Wind_Direction
353 347 347 348 357 355 358 4 1 13 40 6 334 259 224 215 213 215 220 219 225 235 245 233 228 227 243 240 242 244 245 250 257 268 256 256 260 269 260 260 263 256 255
325 327 337 350 357 351 349 351 1 16 356 37 36 7 212 199 198 209 216 215 220 223 223 228 234 232 240 242 251 256 243 245 252 265 247 256 252 242 246 253 250 262 255
331 339 344 353 355 356 349 352 353 355 14 192 142 62 94 170 196 201 229 229 241 250 249 245 238 235 241 252 246 247 251 254 254 256 257 265 259 258 253 250 259 257 259
329 334 336 340 348 352 342 328 338 328 353 30 40 274 239 212 216 228 244 262 266 260 248 255 258 251 270 267 265 259 262 257 260 262 259 253 253 252 258 259 261 269 267
321 325 329 332 333 337 335 318 275 293 287 308 327 296 214 205 257 263 256 255 256 247 249 243 257 266 273 267 265 265 263 255 258 260 258 252 255 258 263 266 268 272 268
317 318 320 322 319 329 330 325 291 294 295 294 297 285 281 289 280 270 271 263 263 265 264 265 262 261 267 266 268 274 263 269 265 266 261 260 264 264 276 278 277 270 270
307 311 316 312 303 322 311 327 327 321 317 315 313 307 299 291 283 279 272 272 271 269 267 265 264 259 262 261 267 271 274 278 274 275 285 291 280 270 267 267 250 257 262
305 310 317 309 311 305 287 300 317 316 314 312 310 312 316 306 291 288 293 295 281 276 279 281 275 272 271 270 272 274 274 274 274 275 276 275 272 271 267 267 262 258 271
313 312 318 313 316 300 304 292 295 305 301 301 302 303 307 305 301 292 293 299 301 286 278 278 280 281 279 278 280 280 278 276 274 273 275 274 271 267 264 264 263 264 267
307 305 306 306 308 299 305 308 308 309 299 297 297 302 301 296 288 287 289 292 292 292 293 289 287 286 286 282 280 280 278 276 277 277 276 273 272 272 272 270 271 271 271
296 301 293 287 298 309 309 312 313 315 311 303 300 297 294 294 293 287 279 272 281 283 286 287 284 282 286 289 288 285 284 283 280 277 273 272 276 275 272 272 271 263 272
277 285 285 282 292 306 311 311 310 315 306 299 297 290 287 285 285 277 277 276 276 277 282 284 274 277 283 285 283 284 284 280 273 292 294 285 284 284 281 279 280 279 279
284 281 274 275 284 296 301 304 293 299 300 300 295 293 291 281 281 280 276 282 290 290 287 290 292 296 294 291 287 285 287 283 285 284 288 286 283 279 280 280 280 279 278
282 281 281 279 284 287 298 269 281 290 293 290 289 291 293 295 288 279 279 282 280 281 287 292 295 299 299 296 292 292 291 291 290 288 287 288 288 286 285 283 281 279 279
277 276 280 283 286 282 280 277 275 276 279 279 283 289 291 292 292 289 285 286 287 286 288 291 293 294 293 293 293 292 292 291 290 291 291 290 289 287 286 284 282 280 279
282 279 280 281 280 279 274 268 269 269 271 273 276 280 285 292 296 298 298 297 297 298 298 296 294 293 293 292 290 290 291 291 291 290 289 288 286 285 284 282 280 279 279
287 287 281 272 274 275 269 265 266 267 270 272 277 280 280 282 288 293 295 295 295 295 295 295 295 295 295 295 294 293 292 291 290 290 290 289 288 287 286 285 284 284 283
290 285 284 283 279 272 267 267 268 269 270 270 271 274 283 290 291 291 292 295 297 297 299 298 297 296 296 296 297 298 297 297 297 297 298 298 296 295 294 293 291 289 289
289 293 291 282 277 273 272 270 266 264 264 275 281 283 285 287 290 294 295 297 298 300 300 298 299 300 302 303 304 304 304 304 304 305 306 304 303 302 300 300 301 300 298
286 287 283 276 273 269 265 260 262 266 271 280 281 280 283 288 290 292 295 296 298 299 301 303 305 305 307 308 308 309 309 309 310 311 308 306 305 307 310 310 309 307 304
285 277 275 271 268 263 263 271 277 279 281 281 280 283 286 289 294 296 299 300 302 303 303 307 310 311 311 311 312 314 314 315 316 315 313 310 314 317 314 312 312 314 316
281 273 280 277 272 257 254 259 262 264 273 275 277 281 285 289 294 297 298 299 301 306 310 313 314 313 313 315 316 317 319 319 319 320 315 312 317 317 317 319 325 336 335
288 287 288 287 274 267 253 258 271 271 276 278 278 281 287 291 293 296 302 307 310 312 314 314 313 315 316 317 317 320 324 328 326 324 319 316 323 324 324 330 334 339 338
292 287 274 273 265 261 264 266 277 281 280 281 285 289 292 298 302 305 307 310 311 311 310 311 313 314 317 318 320 323 329 336 338 339 337 332 334 341 333 325 326 330 334
290 278 273 264 253 266 270 277 280 283 284 285 288 292 296 300 303 305 308 310 308 308 309 308 311 316 318 319 322 326 330 338 344 347 345 346 351 359 8 22 35 44 60
274 274 275 268 263 262 270 275 280 282 284 287 290 295 300 304 305 304 304 305 304 303 304 307 311 313 315 317 321 324 326 332 338 347 352 350 353 359 5 8 12 26 27